sat.trackr.live / text

‹ back to catalog

IRIDIUM 133

NORAD 42955 · 2017-061A

PAYLOAD ACTIVE UNKNOWN

§ Identity

Operator
Country
US
Launch date
2017-10-09
Launch site
AFWTR
Launch vehicle
Mass (kg)
RCS (m²)

Purposes: comms

External: N2YO · Heavens-Above · Gunter

§ Orbital elements

Epoch: 2026-09-20T04:41:58.744320Z

Period
100.40 min
Inclination
86.4023°
Eccentricity
0.0002172
Mean motion
14.34217687 rev/d
Perigee alt
776.1 km
Apogee alt
779.2 km
Semi-major
7,155.8 km
B*
-2.2382e-7
RAAN
345.5710°
Arg perigee
94.4402°
Mean anomaly
265.7042°
Rev number
46,839

§ Raw data

IRIDIUM 1331 42955U 17061A   26263.19581880  .00000019  00000+0 -22382-6 0  99922 42955  86.4023 345.5710 0002172  94.4402 265.7042 14.34217687468399

JSON: /api/v1/satellites/42955 · /tle

For live sub-satellite position, see the globe view (requires WebGL).

§ Visibility from observer

Set your observer location to see the next 7 days of passes ≥ 10°. The values pass through the URL so the page stays shareable.

No JS? Fill the form by hand. The geolocation button needs JavaScript.